SQ6CZH-3 Weather Reports


time (UTC)temp
F
wind
direction
speed
knots
gust
knots
rain 1hr
in
rain 24hr
in
rain mn
in
humidity
%
barometer
mb
20260504081652 71 270 0.9 1.7 0.00 0.00 0.00 49 1013.3
20260504080650 71 303 0.9 1.7 0.00 0.00 0.00 49 1013.3
20260504050616 60 45 0.9 0.9 0.00 0.00 0.00 49 1013.0
20260504045632 60 354 0.9 1.7 0.00 0.00 0.00 48 1012.9
20260504044612 60 341 0.9 1.7 0.00 0.00 0.00 48 1012.9
20260504043608 60 333 0.9 1.7 0.00 0.00 0.00 48 1012.7
20260504042606 60 336 0.9 0.9 0.00 0.00 0.00 48 1012.8
20260504041604 60 336 0.9 0.9 0.00 0.00 0.00 48 1012.6
20260504040644 61 359 0.9 0.9 0.00 0.00 0.00 48 1012.8
20260504035600 61 0 0.9 0.9 0.00 0.00 0.00 47 1012.8
20260504034640 61 45 0.9 0.9 0.00 0.00 0.00 47 1012.8
20260504033556 62 35 0.9 0.9 0.00 0.00 0.00 47 1012.8
20260504032554 62 45 0.9 0.9 0.00 0.00 0.00 47 1012.9
20260504031614 62 26 0.9 0.9 0.00 0.00 0.00 47 1012.6
20260504030552 62 0 0.9 0.9 0.00 0.00 0.00 47 1012.4
20260504025549 63 135 0.9 0.9 0.00 0.00 0.00 47 1012.3
20260504024546 63 45 0.9 0.9 0.00 0.00 0.00 46 1012.1
20260504023606 63 56 0.9 1.7 0.00 0.00 0.00 46 1012.0
20260504022543 63 52 0.9 1.7 0.00 0.00 0.00 46 1012.0
20260504021541 64 90 0.9 0.9 0.00 0.00 0.00 46 1012.0
20260504020538 64 56 0.9 0.9 0.00 0.00 0.00 46 1012.1
20260504015537 64 14 0.9 0.9 0.00 0.00 0.00 46 1012.1
20260504014534 64 90 0.9 0.9 0.00 0.00 0.00 46 1012.0
20260504013533 64 90 0.9 0.9 0.00 0.00 0.00 46 1011.9
20260504012530 64 45 0.9 0.9 0.00 0.00 0.00 46 1011.9
20260504011549 65 18 0.9 0.9 0.00 0.00 0.00 46 1011.9
20260504010526 65 0 0.9 0.9 0.00 0.00 0.00 46 1011.9
20260504005525 65 0 0.9 1.7 0.00 0.00 0.00 46 1012.0
20260504004523 65 270 0.9 0.9 0.00 0.00 0.00 46 1011.9
20260504003521 65 341 0.9 1.7 0.00 0.00 0.00 46 1011.9
20260504002519 65 347 0.9 1.7 0.00 0.00 0.00 46 1012.0
20260504001558 65 308 0.9 2.6 0.00 0.00 0.00 46 1012.1
20260504000514 66 315 0.9 3.5 0.00 0.00 0.00 46 1012.1
20260503235513 66 320 0.9 2.6 0.00 0.00 0.00 45 1012.3
20260503234520 66 318 0.9 2.6 0.00 0.00 0.00 45 1012.2
20260503233528 66 345 0.9 0.9 0.00 0.00 0.00 45 1012.3
20260503232506 66 341 0.9 0.9 0.00 0.00 0.00 45 1012.4
20260503231504 67 326 0.9 2.6 0.00 0.00 0.00 45 1012.4
20260503230504 67 312 1.7 5.2 0.00 0.00 0.00 45 1012.4
20260503225500 67 324 1.7 3.5 0.00 0.00 0.00 45 1012.4
20260503224519 68 313 1.7 4.3 0.00 0.00 0.00 45 1012.5
20260503223457 68 315 1.7 4.3 0.00 0.00 0.00 45 1012.5
20260503222454 68 312 1.7 4.3 0.00 0.00 0.00 45 1012.5
20260503221458 68 308 0.9 3.5 0.00 0.00 0.00 45 1012.8
20260503220450 69 312 0.9 3.5 0.00 0.00 0.00 45 1012.9
20260503215449 69 317 1.7 3.5 0.00 0.00 0.00 45 1012.8
20260503214446 69 310 0.9 5.2 0.00 0.00 0.00 44 1012.8
20260503213445 69 316 1.7 4.3 0.00 0.00 0.00 44 1012.8
20260503212443 69 307 0.9 5.2 0.00 0.00 0.00 44 1012.9
20260503211440 69 317 0.9 3.5 0.00 0.00 0.00 44 1012.7
20260503210438 70 308 1.7 3.5 0.00 0.00 0.00 44 1012.9
20260503205436 70 315 1.7 4.3 0.00 0.00 0.00 44 1013.0
20260503204434 70 315 0.9 4.3 0.00 0.00 0.00 44 1013.0
20260503203433 70 318 0.9 4.3 0.00 0.00 0.00 44 1013.0
20260503202452 71 317 1.7 4.3 0.00 0.00 0.00 44 1012.9
20260503201429 71 315 0.9 3.5 0.00 0.00 0.00 43 1013.1
20260503200426 71 306 0.9 2.6 0.00 0.00 0.00 43 1012.9
20260503195425 72 322 0.9 3.5 0.00 0.00 0.00 43 1013.0
20260503194423 72 315 0.9 2.6 0.00 0.00 0.00 43 1012.9
20260503193420 73 315 0.9 1.7 0.00 0.00 0.00 43 1012.8
20260503192419 73 323 0.9 1.7 0.00 0.00 0.00 43 1012.8
20260503191416 74 306 0.9 2.6 0.00 0.00 0.00 43 1012.9
20260503190414 74 299 0.9 2.6 0.00 0.00 0.00 43 1012.8
20260503185414 75 315 0.9 3.5 0.00 0.00 0.00 43 1012.6
20260503184436 75 311 0.9 3.5 0.00 0.00 0.00 43 1012.5
20260503183408 76 309 0.9 3.5 0.00 0.00 0.00 43 1012.4
20260503182426 76 315 1.7 3.5 0.00 0.00 0.00 42 1012.4
20260503181405 76 315 1.7 3.5 0.00 0.00 0.00 42 1012.5
20260503180402 77 309 1.7 4.3 0.00 0.00 0.00 42 1012.2
20260503175401 77 305 0.9 2.6 0.00 0.00 0.00 42 1012.3
20260503174358 77 315 0.9 3.5 0.00 0.00 0.00 42 1012.1
20260503173417 78 298 0.9 4.3 0.00 0.00 0.00 42 1012.2
20260503172354 78 306 0.9 3.5 0.00 0.00 0.00 42 1012.2
20260503171352 78 300 1.7 5.2 0.00 0.00 0.00 42 1012.2
20260503170410 78 304 1.7 7.8 0.00 0.00 0.00 42 1012.2
20260503150327 79 299 0.9 3.5 0.00 0.00 0.00 42 1012.8
20260503140314 80 290 0.9 1.7 0.00 0.00 0.00 42 1013.4